ZUCKZSQD

Guest
Details From ZUCK - JIANGBEI
To ZSQD - LIUTING
Flight Number -
Tags decoded
Created
Modified
Stats Distance 1,053 nm / 1,950 km
Max Altitude 0 ft / 0 m
Waypoints 6
Social Downloads 0
Likes 0
Share VATSIM

Download

Looking for another format? Having issues loading an existing format? Contact us
Advertisement - Login to hide

Notes

Requested: ZUCK ZGHA ZHHH ZSOF ZSSS ZSNJ ZSQD

Route

ZUCK ZGHA ZHHH ZSOF ZSNJ ZSQD

ID Type Via Altitude Latitude Longitude Leg Dist Tot Dist Heading (true) Name
O ZUCK APT - 0 ft / 0 m 29.71922˚ 106.64168˚ - 0 nm - JIANGBEI
ZGHA APT - 0 ft / 0 m 28.18916˚ 113.21963˚ 357 nm 357 nm 103° / 106° HUANGHUA
ZHHH APT - 0 ft / 0 m 30.78376˚ 114.20810˚ 164 nm 521 nm 18° / 19° TIANHE
ZSOF APT - 0 ft / 0 m 31.78002˚ 117.29871˚ 169 nm 691 nm 69° / 70° LUOGANG
ZSNJ APT - 0 ft / 0 m 31.74204˚ 118.86202˚ 79 nm 771 nm 91° / 92° LUKOU
O ZSQD APT - 0 ft / 0 m 36.26611˚ 120.37443˚ 281 nm 1053 nm 15° / 16° LIUTING

Altitude Profile

Advertisement - Login to hide

Weather


0- 5 10 15 20 25 30 35+ Temperature / ° C

Clouds and Precipitation
Forecast for 2018-05-27 12:00 UTC. Updated 3 hours ago

Ground ~20,000 ft ~40,000 ft Winds

ZUCK

Details ICAO ZUCK (CKG)
Name JIANGBEI
Region China
Timezone Asia/Chongqing (UTC+8.0)
Stats Elevation 1,365 ft / 416 m (AMSL)
Location 29.719217° 106.641677°
Runways 1
Magnetic Variation 2.501° W

METAR

ZUCK 271400Z 21001MPS CAVOK 19/17 Q1016 NOSIG

Decode

TAF

Not found

Departure Runways

ID Width Length Bearing (true) Bearing (mag) Surface Threshold Offset Overrun Length
02 148 ft / 45 m 10,543 ft / 3,213 m 16.82° 19.32° Concrete 0 ft / 0 m 197 ft / 60 m
20 148 ft / 45 m 10,543 ft / 3,213 m 196.82° 199.32° Concrete 0 ft / 0 m 197 ft / 60 m

ZSQD

Details ICAO ZSQD (TAO)
Name LIUTING
Region China
Timezone Asia/Shanghai (UTC+8.0)
Stats Elevation 33 ft / 10 m (AMSL)
Location 36.266107° 120.374435°
Runways 1
Magnetic Variation 7.026° W

METAR

ZSQD 271400Z 19002MPS 6000 NSC 20/17 Q1009 NOSIG

Decode

TAF

Not found

Destination Runways

ID Width Length Bearing (true) Bearing (mag) Surface Threshold Offset Overrun Length
17 148 ft / 45 m 11,211 ft / 3,417 m 165.61° 172.64° Concrete 0 ft / 0 m 200 ft / 61 m
35 148 ft / 45 m 11,211 ft / 3,417 m 345.61° 352.64° Concrete 0 ft / 0 m 200 ft / 61 m

Approach Navaids

Runway Type Ident Frequency Range Bearing (true) Bearing (mag) Slope Elevation
17 Localiser INX 110.70 MHz 18 nm / 33 km 165.54° 172.57° - 33 ft / 10 m (AMSL)
17 Glidescope INX 110.70 MHz 10 nm / 19 km 165.61° 172.64° 3.00° 33 ft / 10 m (AMSL)
17 DME INX 110.70 MHz 18 nm / 33 km - - - 33 ft / 10 m (AMSL)
35 Localiser IPP 111.70 MHz 18 nm / 33 km 345.54° 352.56° - 33 ft / 10 m (AMSL)
35 Glidescope IPP 111.70 MHz 10 nm / 19 km 345.61° 352.64° 3.00° 33 ft / 10 m (AMSL)

Popular Alternatives